JILIN-01 GAOFEN 3F (46458 NORAD) Tracking and Keplerian Element Data

This shows tracking and keplerian element data for the satellite.

Feedback or suggestion? Click here.




ElementValue
Catalog46458
NameJILIN-01 GAOFEN 3F
Epoch Orbit148
Epoch Day268.86630662
Epoch Year2020
RAAN324.3561
Inclination97.5308
Eccentricity0.0012135
Argument of Perigee259.5446
Mean Anonmoly218.5176
Mean Motion15.09448585
Decay Rate-1.33E-06
L11 46458U 20065E 20268.86630662 -.00000133 00000-0 -43641-5 0 9997
L22 46458 97.5308 324.3561 0012135 259.5446 218.5176 15.09448585 1484

Live tracking and technical data element details for JILIN-01 GAOFEN 3F (NORAD 46458). JILIN-01 GAOFEN 3F can be tracked NOW for your location showing map with azimuth and elevation plus other details from your city location.

Track the satellite on the map from your city or location and see movement details for azimuth, elevation, latitude, longitude, range, height, and movement on the map or in text.







IsCatalogInMostPopularTable: catalog: 46458, numindb: 1
Update: records affected: 1



GetName: 46458 JILIN-01 GAOFEN 3F

Hit Count: updated at: Sat, 26 Sep 2020 14:10:28 GMT